Location: Chartham
(51.2500°N, 1.0167°E)
Time: 05:54:25
(UTC+00:00)

Daily predictions for brighter satellites

Satellite Brightness Start Highest point End
(mag) Time Altitude Azimuth Time Altitude Azimuth Time Altitude Azimuth
SL-16 R/B 4.3 00:16:47 25° NE 00:16:47 25° NE 00:20:52 10° N
SL-16 R/B 4.3 00:39:05 22° NNE 00:39:05 22° NNE 00:41:07 10° NNE
Cosmos 2344 4.4 00:45:49 43° NNW 00:46:04 43° NNW 00:54:04 10° NE
Resurs 1-4 Rocket 3.8 01:34:47 10° NNE 01:37:26 30° NNE 01:37:26 30° NNE
Cosmos 1697 Rocket 4.2 01:35:40 10° NNW 01:40:47 33° NE 01:45:52 10° ESE
CZ-2D R/B 3.6 01:40:01 10° NNE 01:42:56 33° NNE 01:42:56 33° NNE
IDEFIX/ARIANE 42P 4.0 01:48:28 10° NNE 01:51:46 35° NE 01:51:46 35° NE
SL-16 R/B 3.7 02:01:53 33° NNW 02:01:53 33° NNW 02:05:10 10° NNW
Lacrosse 4 Rocket 4.4 02:17:51 10° N 02:20:09 14° NNE 02:22:30 10° ENE
SL-16 R/B 4.3 02:20:57 16° NNW 02:21:06 16° NNW 02:24:38 10° N
Cosmos 1980 Rocket 3.7 02:16:31 10° NNW 02:21:37 34° NE 02:26:42 10° ESE
ADEOS II 2.9 02:19:25 10° NNE 02:23:08 47° NNE 02:23:08 47° NNE
ATLAS 5 CENTAUR R/B 3.7 02:42:00 20° N 02:42:00 20° N 02:45:32 10° NE
Cosmos 1833 Rocket 3.1 03:01:05 50° SSE 03:02:06 59° ESE 03:07:40 10° NE
MSX 3.8 02:57:23 10° N 03:02:58 64° WNW 03:02:58 64° WNW
FENGYUN 3A 4.1 02:58:05 10° NNE 03:03:26 59° ESE 03:05:03 41° SSE
Cosmos 1371 Rocket 4.5 03:10:56 43° SSE 03:12:17 57° ESE 03:17:25 10° NNE
Meteor 1-4 Rocket 3.8 03:09:23 10° N 03:12:35 42° ENE 03:12:35 42° ENE
USA 307 3.7 03:13:49 45° ESE 03:13:49 45° ESE 03:17:08 10° ENE
ATLAS CENTAUR R/B 2.7 03:12:30 37° SSE 03:13:23 40° ESE 03:17:56 10° NE
Cosmos 2123 Rocket 4.3 03:09:12 10° NNW 03:14:19 45° WNW 03:14:19 45° WNW
Meteor 1-14 Rocket 4.4 03:13:32 10° NNW 03:18:51 54° WNW 03:18:51 54° WNW
Resurs 1-4 Rocket 3.6 03:15:19 10° N 03:18:30 23° NW 03:18:30 23° NW
ERBS 4.5 03:21:12 22° NE 03:21:12 22° NE 03:22:24 10° ENE
Cosmos 1934 Rocket 4.1 03:22:36 52° WSW 03:23:23 56° WNW 03:29:36 10° N
Cosmos 2082 Rocket 3.5 03:19:35 16° SSE 03:23:30 37° ESE 03:28:37 10° NE
USA 306 3.1 03:24:27 62° ESE 03:24:27 62° ESE 03:28:10 10° ENE
CZ-2D R/B 3.6 03:20:50 10° N 03:24:14 22° NW 03:24:14 22° NW
Cosmos 1697 Rocket 3.3 03:19:32 10° NW 03:27:50 29° S 03:30:37 10° S
ALOS 2.3 03:25:33 10° NNE 03:30:15 80° ESE 03:31:32 48° S
CZ-2C R/B 3.1 03:26:05 10° SSE 03:31:14 61° ENE 03:36:32 10° N
BREEZE-M DEB (TANK) 3.5 03:32:42 31° ESE 03:32:42 31° ESE 03:34:01 10° ESE
Meteor 1-11 Rocket 3.8 03:25:53 10° NNW 03:31:55 90° ENE 03:37:52 10° S
BREEZE-M R/B 4.2 03:30:32 47° WSW 03:32:35 79° S 03:44:35 10° E
EO 1 Del DPAF 4.2 03:29:36 10° NNE 03:31:37 34° N 03:31:37 34° N
IDEFIX/ARIANE 42P 3.6 03:28:26 10° N 03:32:34 30° NW 03:32:34 30° NW
Cosmos 1743 2.6 03:31:20 10° N 03:35:09 81° E 03:35:15 80° ESE
Cosmos 1605 Rocket 3.8 03:33:49 42° SW 03:35:54 68° WNW 03:42:00 10° N
CZ-2C R/B 2.5 03:31:17 10° NNE 03:36:19 73° ESE 03:38:51 29° S
CBERS-1 3.9 03:31:49 10° NNE 03:36:58 85° WNW 03:38:49 41° SSW
COSMOS 2406 3.7 03:34:02 25° S 03:37:17 59° ESE 03:42:52 10° NE
Cosmos 1954 Rocket 3.9 03:32:13 10° NNW 03:37:25 67° WSW 03:42:37 10° S
PAYLOAD A 4.0 03:35:29 10° NNE 03:40:18 75° ESE 03:43:09 26° S
Cosmos 2056 Rocket 3.4 03:40:20 41° SSW 03:42:09 88° ESE 03:47:18 10° NNE
IRS-1D 3.8 03:37:25 10° N 03:42:34 51° WNW 03:43:26 46° W
Cosmos 1441 Rocket 3.5 03:42:10 41° SSE 03:43:14 62° E 03:46:59 10° NNE
Cosmos 1633 Rocket 2.9 03:40:50 10° NNW 03:45:09 64° W 03:45:35 59° SW
DELTA 2 DEB (DPAF) 4.5 03:40:53 10° SSE 03:45:15 64° ENE 03:49:37 10° N
USA 308 2.7 03:46:41 65° SSW 03:47:11 76° SSE 03:51:19 10° ENE
X-37B 2.7 03:50:04 17° SE 03:50:04 17° SE 03:51:10 10° SE
Cosmos 1420 Rocket 3.9 03:46:30 33° SSW 03:48:56 86° ESE 03:54:10 10° NNE
YAOGAN 6 4.2 03:50:52 10° NNE 03:54:15 35° E 03:57:35 10° SSE
Meteor 2-6 Rocket 4.3 03:53:09 39° WSW 03:54:41 50° WNW 04:00:06 10° N
Cosmos 2322 Rocket 3.7 03:52:27 10° NNW 03:57:44 37° NE 04:02:57 10° ESE
Cosmos 1933 Rocket 3.9 03:53:43 10° N 03:58:10 67° ENE 04:02:32 10° SSE
Cosmos 1666 Rocket 4.1 03:55:20 10° NNW 03:59:05 38° WNW 03:59:05 38° WNW
Lacrosse 4 Rocket 2.5 03:55:36 10° NNW 03:59:49 47° NE 04:04:05 10° ESE
Cosmos 1356 4.3 04:02:21 33° NNW 04:02:21 33° NNW 04:04:37 10° N
Meteor 2-13 Rocket 4.4 03:55:31 10° NNW 04:01:41 85° W 04:07:51 10° S
Cosmos 1536 2.9 03:58:08 10° NNW 04:02:07 54° W 04:03:44 32° SSW
Cosmos 1741 Rocket 4.1 03:57:03 10° NNW 04:02:19 75° ENE 04:07:32 10° SSE
Cosmos 1328 Rocket 3.5 04:00:54 32° SSW 04:02:48 68° WNW 04:07:14 10° N
ADEOS II 3.6 04:00:10 10° N 04:03:44 19° NW 04:04:03 19° WNW
Cosmos 1151 Rocket 3.4 04:05:02 39° W 04:05:25 40° WNW 04:09:28 10° N
Helios 1B rocket 2.3 04:01:31 10° NNE 04:05:37 80° WNW 04:07:56 25° SSW
Cosmos 1980 Rocket 2.2 04:00:26 10° NW 04:05:55 55° WSW 04:11:20 10° S
Cosmos 1346 Rocket 2.9 04:06:05 43° WSW 04:06:58 54° WNW 04:10:53 10° N
Cosmos 2173 Rocket 3.9 04:04:25 10° S 04:10:32 86° E 04:16:40 10° N
Meteor 2-9 Rocket 4.3 04:05:48 10° NNW 04:11:38 86° E 04:17:15 10° SSE
IKONOS-2 4.4 04:07:50 10° SSE 04:12:04 88° WSW 04:16:21 10° NNW
USA 305 2.8 04:12:19 37° W 04:13:50 77° NNW 04:17:58 10° ENE
GP-B 3.5 04:10:10 10° SSE 04:14:32 65° E 04:18:57 10° N
Cosmos 2369 4.0 04:11:52 10° NW 04:17:13 43° WSW 04:22:31 10° S
ARIANE 5 R/B 2.4 04:13:03 10° NNE 04:18:07 85° WNW 04:23:07 10° SSW
IRS-1C 4.1 04:15:15 10° NNE 04:20:35 73° WNW 04:25:54 10° SSW
CZ-2D R/B 3.3 04:18:58 10° NNE 04:22:57 88° ESE 04:26:57 10° SSW
Cosmos 2278 3.6 04:18:27 10° NNW 04:24:06 70° WSW 04:29:42 10° SSE
SL-08 R/B 3.2 04:21:12 10° S 04:25:51 67° WSW 04:30:38 10° NNW
SL-16 R/B 2.5 04:20:46 10° NNW 04:26:27 69° ENE 04:32:07 10° SE
Cosmos 1515 Rocket 3.5 04:22:37 10° SSW 04:27:03 73° WNW 04:31:32 10° N
Cosmos 1515 4.5 04:26:40 28° W 04:27:13 30° WNW 04:30:34 10° N
ATLAS 5 CENTAUR R/B 3.9 04:24:22 10° NW 04:28:02 22° NNE 04:32:17 10° ENE
ERS-1 4.5 04:22:56 10° NNE 04:28:08 76° WNW 04:33:20 10° SSW
Centaur D AC-29 4.4 04:23:25 10° SSW 04:29:21 19° SSE 04:45:55 10° ESE
Cosmos 1470 Rocket 4.0 04:26:56 10° NNW 04:30:56 37° W 04:34:56 10° SSW
BREEZE M DEB (TANK) 4.2 04:20:45 14° SW 04:31:41 51° SSE 04:35:37 10° E
Meteor 1-27 Rocket 3.9 04:27:09 10° SSW 04:32:51 58° WNW 04:38:43 10° N
Cosmos 1452 Rocket 3.6 04:29:32 10° SSW 04:34:48 83° ESE 04:40:08 10° NNE
Cosmos 2228 Rocket 4.4 04:30:38 10° SSE 04:34:52 44° E 04:39:07 10° NNE
Envisat 3.0 04:35:31 10° NNE 04:40:38 88° WNW 04:45:44 10° SSW
CZ-4C R/B 3.4 04:38:32 10° S 04:42:46 76° WSW 04:47:09 10° NNW
Cosmos 1484 Rocket 2.9 04:40:46 10° N 04:44:40 55° WNW 04:48:32 10° SSW
Cosmos 44 Rocket 3.2 04:41:08 15° SW 04:44:59 69° NW 04:49:43 10° NE
Cosmos 1833 Rocket 3.5 04:42:48 17° W 04:46:22 33° NW 04:51:29 10° NNE
Okean 1 3.3 04:42:36 10° SSW 04:46:36 60° WNW 04:50:37 10° N
Cosmos 1378 3.0 04:43:23 10° SSW 04:47:00 68° WNW 04:50:39 10° N
Meteor 1-4 Rocket 4.3 04:44:53 10° NW 04:46:20 15° WNW 04:46:20 15° WNW
Cosmos 2100 Rocket 4.1 04:41:39 10° SSW 04:47:37 52° WNW 04:53:39 10° N
OPS 6432 4.0 04:45:37 10° NW 04:48:31 77° SW 04:51:44 10° SE
Meteor 1-29 2.7 04:45:55 10° N 04:49:13 73° WNW 04:52:31 10° SSW
Cosmos 968 Rocket 3.8 04:45:04 10° NNW 04:50:17 71° ENE 04:55:24 10° SSE
SJ 16-02 4.1 04:48:33 10° N 04:51:29 17° NE 04:54:25 10° E
ATLAS CENTAUR R/B 2.2 04:48:29 16° WSW 04:52:08 46° NW 04:56:49 10° NE
USA 307 3.0 04:49:22 17° W 04:52:28 66° N 04:56:36 10° ENE
CENTAUR R/B 2.7 04:47:00 10° SW 04:52:57 81° SE 05:00:17 10° NE
Cosmos 2219 Rocket 4.0 04:48:03 10° NNW 04:53:07 32° NE 04:58:08 10° ESE
Cosmos 2016 Rocket 4.0 04:46:59 10° SSW 04:53:20 74° WNW 04:59:45 10° N
SL-08 R/B 4.4 04:47:50 10° SSW 04:53:56 83° W 05:00:08 10° N
COSMOS 2455 3.4 04:48:19 10° NW 04:54:19 62° NE 05:00:17 10° SE
ERBS 3.4 04:52:38 14° WNW 04:54:32 26° N 04:57:04 10° NE
Cosmos 2333 Rocket 3.5 04:51:30 10° NNW 04:56:58 43° NE 05:02:21 10° ESE
Cosmos 2061 Rocket 4.0 04:53:50 10° SSW 05:00:02 77° W 05:06:17 10° N
Orbus 7S? 4.0 04:57:09 15° WSW 05:00:03 67° NNW 05:07:25 10° ENE
USA 306 3.1 04:59:58 13° W 05:03:30 60° N 05:07:35 10° ENE
COSMO-SKYMED 1 2.5 05:02:39 10° SSE 05:07:00 82° WSW 05:11:23 10° NNW
ALOS 3.8 05:04:00 10° NNW 05:07:03 18° WNW 05:09:59 10° W
Cosmos 2082 Rocket 2.5 05:02:05 10° SW 05:07:30 47° NW 05:12:56 10° NNE
Cosmos 1242 Rocket 2.3 05:06:08 10° NNW 05:09:36 77° W 05:12:59 10° S
Cosmos 1707 Rocket 4.2 05:07:22 10° S 05:11:39 61° E 05:15:56 10° NNE
Cosmos 1975 3.0 05:07:56 10° NNW 05:11:49 49° W 05:15:38 10° S
Cosmos 1461 2.8 05:07:49 10° SW 05:11:52 82° NW 05:16:08 10° NE
CZ-2C R/B 3.6 05:07:46 10° SW 05:11:57 24° W 05:16:14 10° NW
Cosmos 489 Rocket 4.5 05:06:24 10° NNW 05:12:35 63° WSW 05:18:41 10° S
Cosmos 1869 Rocket 3.9 05:09:08 10° NNW 05:13:23 45° W 05:17:34 10° SSW
CZ-2C R/B 3.8 05:10:19 10° N 05:13:59 21° WNW 05:17:33 10° WSW
Cosmos 2360 Rocket 2.4 05:09:05 10° NNW 05:14:45 76° ENE 05:20:22 10° SE
NOSS 3-2 (C) 3.7 05:12:37 10° SSW 05:18:06 70° SE 05:24:35 10° NE
Cosmos 2344 4.4 05:10:11 10° NW 05:18:38 79° NE 05:30:19 10° SE
NOSS 3-2 (A) 3.4 05:13:42 10° SW 05:19:18 75° NW 05:26:00 10° NE
SKYMED 3 4.4 05:16:59 10° S 05:21:09 69° WSW 05:25:18 10° NNW
SJ-6F 4.4 05:17:07 10° N 05:21:16 68° WNW 05:25:21 10° SSW
COSMOS 2406 4.0 05:16:50 10° WSW 05:21:56 33° NW 05:27:04 10° NNE
X-37B 2.6 05:21:59 10° SW 05:23:41 15° SSW 05:25:23 10° SSE
Meteor 2-4 Rocket 3.7 05:19:43 10° SSW 05:25:27 70° WNW 05:31:04 10° N
